Tracking 19247 objects as of 22-Sep-2018
HD Live streaming from Space Station
objects crossing your sky now

DELTA 4 R/B

Track DELTA 4 R/B now!


NORAD ID: 35492
Int'l Code: 2009-033B
Perigee: 6,620.0 km
Apogee: 35,106.5 km
Inclination: 14.1 °
Period: 745.5 minutes
Semi major axis: 27234 km
RCS: 39.3633 m2 (large)
Launch date: June 27, 2009
Source: United States (US)
Launch site: AIR FORCE EASTERN TEST RANGE (AFETR)

Note: This is a ROCKET BODY
aabbcc
Your satellite tracking list
Your tracking list is empty




NASA's NSSDC Master Catalog

Two Line Element Set (TLE):
1 35492U 09033B   18263.46329389 -.00000096 +00000-0 +00000-0 0  9998
2 35492 014.1297 055.3713 5229912 214.7072 203.6478 01.93165999065122
Source of the keplerian elements: AFSPC